Location: Riddle Hill
(39.7867°N, 89.7645°W)
Time: 21:09:19
(UTC+00:00)

SAR-Lupe-1 - Pass Details

Date: 29 October 2020
Orbit: 480 x 485 km, 98.2° (Epoch: 26 November)

Event Time Altitude Azimuth Distance (km) Brightness Sun altitude
Rises 23:41:05 0° 17° (NNE) 2,551 7.4 -8.5°
Reaches altitude 10° 23:43:11 10° 22° (NNE) 1,668 6.5 -8.9°
Maximum altitude 23:46:42 54° 101° (E) 591 4.1 -9.6°
Drops below altitude 10° 23:50:12 10° 180° (S) 1,656 6.9 -10.2°
Sets 23:52:17 0° 185° (S) 2,532 7.9 -10.6°
